Date String (YYYY-MM-DD hh:mm:ss) UTC,Instrument flags,Ambient pressure (hPa),Sample flow (lpm),Bypass flow (lpm),Sample temperature (°C),Ambient temperature (°C),ASC tube jacket temperature (°C),LED temperature (°C),Box temperature (°C),Sample RH (%),Span deviation,Mass concentration (μg/m³),Mass concentration (μg/m³),Mass concentration (μg/m³)
DateTimeUTC,F1_M11,P_M11,Q1_M11,Q2_M11,T1_M11,T2_M11,T3_M11,T4_M11,T5_M11,U1_M11,ZSPAN_M11,X0_M11,X2_M11,X1_M11
2022-08-12 19:00:00,,0831.4,5.00,0.00,29.0,27.4,00.0,37.8,30.8,29.8,0000.0,0010.82,0004.57,0003.74
2022-08-12 19:01:00,,0831.4,5.00,0.00,29.0,27.6,00.0,37.8,30.9,29.8,0000.0,0009.70,0004.59,0003.75
2022-08-12 19:02:00,,0831.4,5.01,0.00,29.1,27.8,00.0,37.8,31.0,30.1,0000.0,0009.65,0004.58,0003.75
2022-08-12 19:03:00,,0831.4,4.99,0.00,29.1,28.0,00.0,37.8,31.1,29.8,0000.0,0009.65,0004.59,0003.74
2022-08-12 19:04:00,,0831.4,5.00,0.00,29.2,28.0,00.0,37.9,31.2,29.2,0000.0,0009.77,0004.53,0003.73
2022-08-12 19:05:00,,0831.4,5.01,0.00,29.2,27.6,00.0,37.8,31.0,29.0,0000.0,0010.03,0004.53,0003.72
2022-08-12 19:06:00,,0831.4,5.01,0.00,29.1,27.1,00.0,37.8,30.9,29.2,0000.0,0009.66,0004.47,0003.71
2022-08-12 19:07:00,,0831.5,4.98,0.00,29.1,27.1,00.0,37.8,30.9,28.9,0000.0,0009.32,0004.47,0003.72
2022-08-12 19:08:00,,0831.4,5.01,0.00,29.1,27.2,00.0,37.8,30.9,28.7,0000.0,0009.33,0004.45,0003.71
2022-08-12 19:09:00,,0831.4,5.00,0.00,29.0,27.3,00.0,37.8,30.8,28.7,0000.0,0009.87,0004.45,0003.72
2022-08-12 19:10:00,,0831.4,5.00,0.00,29.1,27.5,00.0,37.8,30.9,28.6,0000.0,0010.63,0004.44,0003.72
2022-08-12 19:11:00,,0831.4,4.99,0.00,29.1,27.7,00.0,37.8,31.0,28.2,0000.0,0011.50,0004.44,0003.71
2022-08-12 19:12:00,,0831.4,5.03,0.00,29.1,27.9,00.0,37.8,31.1,28.1,0000.0,0011.81,0004.41,0003.70
2022-08-12 19:13:00,,0831.4,4.99,0.00,29.2,28.1,00.0,37.9,31.2,28.1,0000.0,0011.75,0004.38,0003.68
2022-08-12 19:14:00,,0831.3,5.02,0.00,29.2,28.0,00.0,37.9,31.2,27.9,0000.0,0011.78,0004.35,0003.67
2022-08-12 19:15:00,,0831.3,5.00,0.00,29.2,27.4,00.0,37.8,31.0,28.1,0000.0,0011.29,0004.34,0003.65
2022-08-12 19:16:00,,0831.3,5.00,0.00,29.1,27.1,00.0,37.8,30.9,28.2,0000.0,0010.67,0004.28,0003.64
2022-08-12 19:17:00,,0831.3,5.01,0.00,29.1,27.1,00.0,37.8,30.9,28.3,0000.0,0010.72,0004.28,0003.65
2022-08-12 19:18:00,,0831.3,4.98,0.00,29.1,27.2,00.0,37.8,30.8,28.7,0000.0,0010.81,0004.30,0003.65
2022-08-12 19:19:00,,0831.3,5.00,0.00,29.1,27.4,00.0,37.8,30.9,28.7,0000.0,0012.07,0004.31,0003.65
2022-08-12 19:20:00,,0831.3,5.01,0.00,29.1,27.6,00.0,37.8,31.0,28.2,0000.0,0012.17,0004.29,0003.63
2022-08-12 19:21:00,,0831.3,5.00,0.00,29.1,27.8,00.0,37.9,31.1,28.0,0000.0,0011.42,0004.28,0003.62
2022-08-12 19:22:00,,0831.3,4.99,0.00,29.2,27.9,00.0,37.9,31.1,27.7,0000.0,0010.40,0004.26,0003.63
2022-08-12 19:23:00,,0831.3,5.00,0.00,29.2,27.5,00.0,37.8,31.1,27.7,0000.0,0010.00,0004.24,0003.63
2022-08-12 19:24:00,,0831.2,5.00,0.00,29.1,27.0,00.0,37.8,30.9,27.1,0000.0,0010.48,0004.31,0003.65
2022-08-12 19:25:00,,0831.2,5.00,0.00,29.1,26.9,00.0,37.8,30.9,28.0,0000.0,0011.40,0004.31,0003.66
2022-08-12 19:26:00,,0831.2,5.00,0.00,29.0,27.0,00.0,37.8,30.8,29.5,0000.0,0013.28,0004.35,0003.67
2022-08-12 19:27:00,,0831.2,5.00,0.00,29.0,27.2,00.0,37.8,30.8,29.7,0000.0,0014.08,0004.45,0003.69
2022-08-12 19:28:00,,0831.2,5.01,0.00,29.0,27.4,00.0,37.8,30.9,29.9,0000.0,0015.28,0004.51,0003.70
2022-08-12 19:29:00,,0831.2,5.01,0.00,29.0,27.6,00.0,37.8,30.9,29.1,0000.0,0016.77,0004.52,0003.70
2022-08-12 19:30:00,,0831.2,4.99,0.00,29.1,27.8,00.0,37.8,31.0,29.5,0000.0,0017.41,0004.52,0003.70
2022-08-12 19:31:00,,0831.2,5.00,0.00,29.1,28.0,00.0,37.8,31.1,29.8,0000.0,0017.14,0004.58,0003.71
2022-08-12 19:32:00,,0831.2,5.00,0.00,29.2,28.1,00.0,37.9,31.2,29.6,0000.0,0017.42,0004.64,0003.72
2022-08-12 19:33:00,,0831.2,4.99,0.00,29.2,27.8,00.0,37.9,31.1,29.4,0000.0,0017.86,0004.71,0003.72
2022-08-12 19:34:00,,0831.2,5.00,0.00,29.2,27.3,00.0,37.8,31.0,29.4,0000.0,0019.64,0004.77,0003.73
2022-08-12 19:35:00,,0831.2,4.99,0.00,29.1,27.1,00.0,37.8,31.0,29.3,0000.0,0019.92,0004.75,0003.74
2022-08-12 19:36:00,,0831.2,5.01,0.00,29.1,27.1,00.0,37.8,30.9,29.6,0000.0,0019.73,0004.77,0003.75
2022-08-12 19:37:00,,0831.2,5.00,0.00,29.1,27.3,00.0,37.8,30.8,29.8,0000.0,0017.93,0004.76,0003.75
2022-08-12 19:38:00,,0831.2,5.01,0.00,29.1,27.5,00.0,37.8,30.9,29.7,0000.0,0017.28,0004.73,0003.76
2022-08-12 19:39:00,,0831.2,5.00,0.00,29.1,27.7,00.0,37.8,31.0,30.1,0000.0,0016.00,0004.69,0003.77
2022-08-12 19:40:00,,0831.2,4.99,0.00,29.1,27.9,00.0,37.8,31.1,29.7,0000.0,0014.63,0004.66,0003.77
2022-08-12 19:41:00,,0831.2,5.00,0.00,29.2,28.0,00.0,37.9,31.2,29.4,0000.0,0013.60,0004.62,0003.78
2022-08-12 19:42:00,,0831.2,5.01,0.00,29.2,27.7,00.0,37.9,31.1,29.9,0000.0,0013.51,0004.60,0003.80
2022-08-12 19:43:00,,0831.2,4.99,0.00,29.2,27.1,00.0,37.8,30.9,29.7,0000.0,0014.07,0004.58,0003.82
2022-08-12 19:44:00,,0831.2,5.01,0.00,29.1,27.0,00.0,37.8,30.9,29.5,0000.0,0013.77,0004.53,0003.83
2022-08-12 19:45:00,,0831.1,5.00,0.00,29.1,27.0,00.0,37.8,30.8,30.3,0000.0,0012.49,0004.53,0003.84
2022-08-12 19:46:00,,0831.1,4.99,0.00,29.0,27.2,00.0,37.8,30.8,30.7,0000.0,0012.31,0004.56,0003.84
2022-08-12 19:47:00,,0831.1,5.02,0.00,29.0,27.4,00.0,37.8,30.9,30.9,0000.0,0011.68,0004.60,0003.85
2022-08-12 19:48:00,,0831.1,4.99,0.00,29.1,27.6,00.0,37.8,31.0,30.9,0000.0,0011.82,0004.62,0003.86
2022-08-12 19:49:00,,0831.0,5.00,0.00,29.1,27.8,00.0,37.8,31.1,31.3,0000.0,0012.04,0004.66,0003.86
2022-08-12 19:50:00,,0831.0,5.00,0.00,29.2,28.0,00.0,37.9,31.2,31.2,0000.0,0012.55,0004.67,0003.86
2022-08-12 19:51:00,,0831.1,5.00,0.00,29.2,28.1,00.0,37.9,31.2,30.9,0000.0,0012.94,0004.69,0003.87
2022-08-12 19:52:00,,0831.0,4.99,0.00,29.2,27.6,00.0,37.9,31.0,31.1,0000.0,0012.51,0004.75,0003.87
2022-08-12 19:53:00,,0831.0,5.01,0.00,29.1,27.1,00.0,37.8,30.9,31.2,0000.0,0012.78,0004.76,0003.87
2022-08-12 19:54:00,,0831.0,5.01,0.00,29.1,27.1,00.0,37.8,30.9,30.7,0000.0,0012.57,0004.73,0003.86
2022-08-12 19:55:00,,0831.0,4.99,0.00,29.1,27.2,00.0,37.8,30.8,30.7,0000.0,0012.52,0004.74,0003.86
2022-08-12 19:56:00,,0830.9,5.00,0.00,29.1,27.3,00.0,37.8,30.9,30.9,0000.0,0013.58,0004.78,0003.86
2022-08-12 19:57:00,,0831.0,4.99,0.00,29.1,27.5,00.0,37.8,30.9,30.6,0000.0,0013.25,0004.75,0003.86
2022-08-12 19:58:00,,0831.0,5.00,0.00,29.1,27.7,00.0,37.8,31.0,30.8,0000.0,0013.18,0004.73,0003.85
2022-08-12 19:59:00,,0831.0,5.00,0.00,29.2,27.9,00.0,37.9,31.1,30.5,0000.0,0013.20,0004.74,0003.86
